Starlink 34128

operational
NORAD ID: 63892 Int'l Des: 2025-095 Owner: SPXS Country: US Constellation: starlink
LEOCIRCULAR

Über Starlink 34128

Beschreibung wird geladen...

Live-Position

3D-Globus wird geladen...

Nächste Überflüge

Höhenverlauf

Altitude vs Time

uPlot chart will show altitude changes over time

Zweizeiliger Elementsatz

1 63892U 25095C 25340.87607546 .00049665 00000-0 18000-2 0 9997
2 63892 43.0023 340.3393 0002518 283.3692 76.6879 15.27618643 33592
Epoch: 6. Dez. 2025 • Age: 17 hours

Aktueller Status

Höhe 482.9 km
Geschwindigkeit 7.63 km/s
Subsatellitenpunkt 23.30°N, 70.36°E
Startdatum 10. Mai 2025
Alter 0.5 years
Typ internet

Technische Details

Klassifizierung Payload
Masse 575.00 kg
Trockenmasse 530.00 kg
Gesamtmasse 575.00 kg
Länge 0.30 m
Durchmesser 4.10 m
Spannweite 29.00 m
Form Box + pan
Hersteller SPXS
Bus-Typ Starlink V2MO
Phasenstatus In Orbit
Besitzer/Staat SPXS/US

Große Konstellationen

Loading constellations...